Year,Month,Day,Hour,Minute,Value (Times are PST for temperature in C)
2017,06,07,00,00,16.20
2017,06,07,00,01,16.20
2017,06,07,00,02,16.20
2017,06,07,00,03,16.20
2017,06,07,00,04,16.20
2017,06,07,00,05,16.20
2017,06,07,00,06,16.20
2017,06,07,00,07,16.20
2017,06,07,00,08,16.20
2017,06,07,00,09,16.10
2017,06,07,00,10,16.10
2017,06,07,00,11,16.10
2017,06,07,00,12,16.10
2017,06,07,00,13,16.10
2017,06,07,00,14,16.10
2017,06,07,00,15,16.10
2017,06,07,00,16,16.00
2017,06,07,00,17,16.00
2017,06,07,00,18,16.00
2017,06,07,00,19,16.00
2017,06,07,00,20,16.00
2017,06,07,00,21,16.00
2017,06,07,00,22,16.00
2017,06,07,00,23,16.00
2017,06,07,00,24,16.00
2017,06,07,00,25,16.00
2017,06,07,00,26,16.00
2017,06,07,00,27,16.00
2017,06,07,00,28,16.00
2017,06,07,00,29,16.00
2017,06,07,00,30,15.90
2017,06,07,00,31,15.90
2017,06,07,00,32,15.90
2017,06,07,00,33,15.90
2017,06,07,00,34,15.90
2017,06,07,00,35,15.80
2017,06,07,00,36,15.80
2017,06,07,00,37,15.80
2017,06,07,00,38,15.80
2017,06,07,00,39,15.80
2017,06,07,00,40,15.70
2017,06,07,00,41,15.70
2017,06,07,00,42,15.70
2017,06,07,00,43,15.70
2017,06,07,00,44,15.60
2017,06,07,00,45,15.60
2017,06,07,00,46,15.60
2017,06,07,00,47,15.60
2017,06,07,00,48,15.60
2017,06,07,00,49,15.60
2017,06,07,00,50,15.60
2017,06,07,00,51,15.60
2017,06,07,00,52,15.60
2017,06,07,00,53,15.60
2017,06,07,00,54,15.50
2017,06,07,00,55,15.50
2017,06,07,00,56,15.50
2017,06,07,00,57,15.40
2017,06,07,00,58,15.40
2017,06,07,00,59,15.40
2017,06,07,01,00,15.30
2017,06,07,01,01,15.30
2017,06,07,01,02,15.30
2017,06,07,01,03,15.30
2017,06,07,01,04,15.30
2017,06,07,01,05,15.30
2017,06,07,01,06,15.20
2017,06,07,01,07,15.20
2017,06,07,01,08,15.20
2017,06,07,01,09,15.20
2017,06,07,01,10,15.20
2017,06,07,01,11,15.20
2017,06,07,01,12,15.10
2017,06,07,01,13,15.10
2017,06,07,01,14,15.10
2017,06,07,01,15,15.10
2017,06,07,01,16,15.10
2017,06,07,01,17,15.00
2017,06,07,01,18,15.00
2017,06,07,01,19,15.00
2017,06,07,01,20,15.00
2017,06,07,01,21,14.90
2017,06,07,01,22,15.00
2017,06,07,01,23,14.90
2017,06,07,01,24,14.90
2017,06,07,01,25,14.90
2017,06,07,01,26,14.90
2017,06,07,01,27,14.90
2017,06,07,01,28,14.90
2017,06,07,01,29,14.90
2017,06,07,01,30,14.90
2017,06,07,01,31,14.90
2017,06,07,01,32,14.90
2017,06,07,01,33,14.90
2017,06,07,01,34,14.90
2017,06,07,01,35,14.90
2017,06,07,01,36,14.90
2017,06,07,01,37,14.90
2017,06,07,01,38,14.90
2017,06,07,01,39,14.90
2017,06,07,01,40,14.90
2017,06,07,01,41,14.80
2017,06,07,01,42,14.80
2017,06,07,01,43,14.80
2017,06,07,01,44,14.80
2017,06,07,01,45,14.80
2017,06,07,01,46,14.80
2017,06,07,01,47,14.80
2017,06,07,01,48,14.80
2017,06,07,01,49,14.80
2017,06,07,01,50,14.80
2017,06,07,01,51,14.70
2017,06,07,01,52,14.70
2017,06,07,01,53,14.70
2017,06,07,01,54,14.70
2017,06,07,01,55,14.70
2017,06,07,01,56,14.70
2017,06,07,01,57,14.70
2017,06,07,01,58,14.70
2017,06,07,01,59,14.70
2017,06,07,02,00,14.70
2017,06,07,02,01,14.70
2017,06,07,02,02,14.70
2017,06,07,02,03,14.70
2017,06,07,02,04,14.70
2017,06,07,02,05,14.70
2017,06,07,02,06,14.70
2017,06,07,02,07,14.70
2017,06,07,02,08,14.70
2017,06,07,02,09,14.70
2017,06,07,02,10,14.70
2017,06,07,02,11,14.70
2017,06,07,02,12,14.70
2017,06,07,02,13,14.70
2017,06,07,02,14,14.70
2017,06,07,02,15,14.70
2017,06,07,02,16,14.70
2017,06,07,02,17,14.70
2017,06,07,02,18,14.70
2017,06,07,02,19,14.70
2017,06,07,02,20,14.70
2017,06,07,02,21,14.70
2017,06,07,02,22,14.70
2017,06,07,02,23,14.70
2017,06,07,02,24,14.70
2017,06,07,02,25,14.70
2017,06,07,02,26,14.70
2017,06,07,02,27,14.70
2017,06,07,02,28,14.70
2017,06,07,02,29,14.70
2017,06,07,02,30,14.70
2017,06,07,02,31,14.70
2017,06,07,02,32,14.60
2017,06,07,02,33,14.60
2017,06,07,02,34,14.60
2017,06,07,02,35,14.60
2017,06,07,02,36,14.60
2017,06,07,02,37,14.60
2017,06,07,02,38,14.50
2017,06,07,02,39,14.50
2017,06,07,02,40,14.50
2017,06,07,02,41,14.50
2017,06,07,02,42,14.50
2017,06,07,02,43,14.50
2017,06,07,02,44,14.40
2017,06,07,02,45,14.40
2017,06,07,02,46,14.40
2017,06,07,02,47,14.40
2017,06,07,02,48,14.40
2017,06,07,02,49,14.40
2017,06,07,02,50,14.40
2017,06,07,02,51,14.30
2017,06,07,02,52,14.30
2017,06,07,02,53,14.30
2017,06,07,02,54,14.30
2017,06,07,02,55,14.30
2017,06,07,02,56,14.30
2017,06,07,02,57,14.30
2017,06,07,02,58,14.30
2017,06,07,02,59,14.30
2017,06,07,03,00,14.30
2017,06,07,03,01,14.30
2017,06,07,03,02,14.30
2017,06,07,03,03,14.30
2017,06,07,03,04,14.30
2017,06,07,03,05,14.30
2017,06,07,03,06,14.30
2017,06,07,03,07,14.30
2017,06,07,03,08,14.30
2017,06,07,03,09,14.30
2017,06,07,03,10,14.30
2017,06,07,03,11,14.30
2017,06,07,03,12,14.30
2017,06,07,03,13,14.30
2017,06,07,03,14,14.30
2017,06,07,03,15,14.20
2017,06,07,03,16,14.20
2017,06,07,03,17,14.20
2017,06,07,03,18,14.20
2017,06,07,03,19,14.20
2017,06,07,03,20,14.20
2017,06,07,03,21,14.20
2017,06,07,03,22,14.20
2017,06,07,03,23,14.20
2017,06,07,03,24,14.20
2017,06,07,03,25,14.20
2017,06,07,03,26,14.20
2017,06,07,03,27,14.20
2017,06,07,03,28,14.20
2017,06,07,03,29,14.20
2017,06,07,03,30,14.20
2017,06,07,03,31,14.20
2017,06,07,03,32,14.20
2017,06,07,03,33,14.20
2017,06,07,03,34,14.20
2017,06,07,03,35,14.20
2017,06,07,03,36,14.10
2017,06,07,03,37,14.10
2017,06,07,03,38,14.10
2017,06,07,03,39,14.10
2017,06,07,03,40,14.10
2017,06,07,03,41,14.10
2017,06,07,03,42,14.10
2017,06,07,03,43,14.10
2017,06,07,03,44,14.10
2017,06,07,03,45,14.10
2017,06,07,03,46,14.10
2017,06,07,03,47,14.00
2017,06,07,03,48,14.00
2017,06,07,03,49,14.00
2017,06,07,03,50,14.00
2017,06,07,03,51,13.90
2017,06,07,03,52,13.90
2017,06,07,03,53,13.90
2017,06,07,03,54,13.90
2017,06,07,03,55,13.90
2017,06,07,03,56,13.90
2017,06,07,03,57,13.80
2017,06,07,03,58,13.80
2017,06,07,03,59,13.80
2017,06,07,04,00,13.80
2017,06,07,04,01,13.80
2017,06,07,04,02,13.80
2017,06,07,04,03,13.80
2017,06,07,04,04,13.80
2017,06,07,04,05,13.80
2017,06,07,04,06,13.80
2017,06,07,04,07,13.80
2017,06,07,04,08,13.80
2017,06,07,04,09,13.80
2017,06,07,04,10,13.80
2017,06,07,04,11,13.80
2017,06,07,04,12,13.80
2017,06,07,04,13,13.80
2017,06,07,04,14,13.80
2017,06,07,04,15,13.80
2017,06,07,04,16,13.80
2017,06,07,04,17,13.70
2017,06,07,04,18,13.70
2017,06,07,04,19,13.70
2017,06,07,04,20,13.70
2017,06,07,04,21,13.70
2017,06,07,04,22,13.70
2017,06,07,04,23,13.70
2017,06,07,04,24,13.70
2017,06,07,04,25,13.70
2017,06,07,04,26,13.70
2017,06,07,04,27,13.70
2017,06,07,04,28,13.70
2017,06,07,04,29,13.70
2017,06,07,04,30,13.70
2017,06,07,04,31,13.70
2017,06,07,04,32,13.60
2017,06,07,04,33,13.60
2017,06,07,04,34,13.60
2017,06,07,04,35,13.60
2017,06,07,04,36,13.60
2017,06,07,04,37,13.60
2017,06,07,04,38,13.60
2017,06,07,04,39,13.60
2017,06,07,04,40,13.60
2017,06,07,04,41,13.60
2017,06,07,04,42,13.50
2017,06,07,04,43,13.50
2017,06,07,04,44,13.50
2017,06,07,04,45,13.50
2017,06,07,04,46,13.50
2017,06,07,04,47,13.50
2017,06,07,04,48,13.50
2017,06,07,04,49,13.50
2017,06,07,04,50,13.40
2017,06,07,04,51,13.40
2017,06,07,04,52,13.40
2017,06,07,04,53,13.40
2017,06,07,04,54,13.40
2017,06,07,04,55,13.40
2017,06,07,04,56,13.40
2017,06,07,04,57,13.40
2017,06,07,04,58,13.40
2017,06,07,04,59,13.40
2017,06,07,05,00,13.40
2017,06,07,05,01,13.40
2017,06,07,05,02,13.40
2017,06,07,05,03,13.40
2017,06,07,05,04,13.40
2017,06,07,05,05,13.40
2017,06,07,05,06,13.40
2017,06,07,05,07,13.40
2017,06,07,05,08,13.40
2017,06,07,05,09,13.40
2017,06,07,05,10,13.40
2017,06,07,05,11,13.40
2017,06,07,05,12,13.40
2017,06,07,05,13,13.40
2017,06,07,05,14,13.40
2017,06,07,05,15,13.40
2017,06,07,05,16,13.30
2017,06,07,05,17,13.30
2017,06,07,05,18,13.30
2017,06,07,05,19,13.30
2017,06,07,05,20,13.30
2017,06,07,05,21,13.30
2017,06,07,05,22,13.30
2017,06,07,05,23,13.30
2017,06,07,05,24,13.30
2017,06,07,05,25,13.30
2017,06,07,05,26,13.30
2017,06,07,05,27,13.30
2017,06,07,05,28,13.30
2017,06,07,05,29,13.20
2017,06,07,05,30,13.20
2017,06,07,05,31,13.20
2017,06,07,05,32,13.10
2017,06,07,05,33,13.10
2017,06,07,05,34,13.10
2017,06,07,05,35,13.00
2017,06,07,05,36,13.00
2017,06,07,05,37,12.90
2017,06,07,05,38,12.90
2017,06,07,05,39,12.90
2017,06,07,05,40,12.90
2017,06,07,05,41,12.90
2017,06,07,05,42,12.90
2017,06,07,05,43,12.90
2017,06,07,05,44,12.90
2017,06,07,05,45,12.90
2017,06,07,05,46,12.90
2017,06,07,05,47,12.90
2017,06,07,05,48,12.90
2017,06,07,05,49,12.90
2017,06,07,05,50,12.90
2017,06,07,05,51,12.80
2017,06,07,05,52,12.80
2017,06,07,05,53,12.80
2017,06,07,05,54,12.80
2017,06,07,05,55,12.80
2017,06,07,05,56,12.80
2017,06,07,05,57,12.80
2017,06,07,05,58,12.80
2017,06,07,05,59,12.80
2017,06,07,06,00,12.80
2017,06,07,06,01,12.80
2017,06,07,06,02,12.80
2017,06,07,06,03,12.80
2017,06,07,06,04,12.80
2017,06,07,06,05,12.80
2017,06,07,06,06,12.70
2017,06,07,06,07,12.70
2017,06,07,06,08,12.70
2017,06,07,06,09,12.70
2017,06,07,06,10,12.80
2017,06,07,06,11,12.70
2017,06,07,06,12,12.80
2017,06,07,06,13,12.80
2017,06,07,06,14,12.80
2017,06,07,06,15,12.80
2017,06,07,06,16,12.80
2017,06,07,06,17,12.80
2017,06,07,06,18,12.80
2017,06,07,06,19,12.80
2017,06,07,06,20,12.80
2017,06,07,06,21,12.80
2017,06,07,06,22,12.80
2017,06,07,06,23,12.80
2017,06,07,06,24,12.80
2017,06,07,06,25,12.80
2017,06,07,06,26,12.80
2017,06,07,06,27,12.80
2017,06,07,06,28,12.80
2017,06,07,06,29,12.80
2017,06,07,06,30,12.80
2017,06,07,06,31,12.80
2017,06,07,06,32,12.80
2017,06,07,06,33,12.80
2017,06,07,06,34,12.80
2017,06,07,06,35,12.90
2017,06,07,06,36,12.90
2017,06,07,06,37,12.90
2017,06,07,06,38,12.90
2017,06,07,06,39,12.90
2017,06,07,06,40,12.90
2017,06,07,06,41,12.90
2017,06,07,06,42,12.90
2017,06,07,06,43,12.90
2017,06,07,06,44,12.90
2017,06,07,06,45,12.90
2017,06,07,06,46,12.90
2017,06,07,06,47,12.90
2017,06,07,06,48,13.00
2017,06,07,06,49,13.00
2017,06,07,06,50,13.00
2017,06,07,06,51,13.00
2017,06,07,06,52,13.00
2017,06,07,06,53,13.00
2017,06,07,06,54,13.00
2017,06,07,06,55,13.00
2017,06,07,06,56,13.00
2017,06,07,06,57,13.00
2017,06,07,06,58,13.00
2017,06,07,06,59,13.00
2017,06,07,07,00,13.10
2017,06,07,07,01,13.10
2017,06,07,07,02,13.10
2017,06,07,07,03,13.10
2017,06,07,07,04,13.20
2017,06,07,07,05,13.20
2017,06,07,07,06,13.20
2017,06,07,07,07,13.30
2017,06,07,07,08,13.30
2017,06,07,07,09,13.30
2017,06,07,07,10,13.30
2017,06,07,07,11,13.40
2017,06,07,07,12,13.40
2017,06,07,07,13,13.40
2017,06,07,07,14,13.50
2017,06,07,07,15,13.50
2017,06,07,07,16,13.60
2017,06,07,07,17,13.60
2017,06,07,07,18,13.70
2017,06,07,07,19,13.70
2017,06,07,07,20,13.80
2017,06,07,07,21,13.80
2017,06,07,07,22,13.80
2017,06,07,07,23,13.90
2017,06,07,07,24,13.90
2017,06,07,07,25,13.90
2017,06,07,07,26,14.00
2017,06,07,07,27,14.00
2017,06,07,07,28,14.10
2017,06,07,07,29,14.10
2017,06,07,07,30,14.20
2017,06,07,07,31,14.20
2017,06,07,07,32,14.20
2017,06,07,07,33,14.30
2017,06,07,07,34,14.30
2017,06,07,07,35,14.30
2017,06,07,07,36,14.40
2017,06,07,07,37,14.40
2017,06,07,07,38,14.40
2017,06,07,07,39,14.40
2017,06,07,07,40,14.50
2017,06,07,07,41,14.50
2017,06,07,07,42,14.50
2017,06,07,07,43,14.60
2017,06,07,07,44,14.60
2017,06,07,07,45,14.60
2017,06,07,07,46,14.70
2017,06,07,07,47,14.70
2017,06,07,07,48,14.70
2017,06,07,07,49,14.80
2017,06,07,07,50,14.80
2017,06,07,07,51,14.90
2017,06,07,07,52,14.90
2017,06,07,07,53,15.00
2017,06,07,07,54,15.10
2017,06,07,07,55,15.10
2017,06,07,07,56,15.20
2017,06,07,07,57,15.20
2017,06,07,07,58,15.20
2017,06,07,07,59,15.30
2017,06,07,08,00,15.30
2017,06,07,08,01,15.40
2017,06,07,08,02,15.40
2017,06,07,08,03,15.50
2017,06,07,08,04,15.60
2017,06,07,08,05,15.60
2017,06,07,08,06,15.70
2017,06,07,08,07,15.80
2017,06,07,08,08,15.80
2017,06,07,08,09,15.90
2017,06,07,08,10,16.00
2017,06,07,08,11,16.00
2017,06,07,08,12,16.10
2017,06,07,08,13,16.20
2017,06,07,08,14,16.30
2017,06,07,08,15,16.30
2017,06,07,08,16,16.40
2017,06,07,08,17,16.50
2017,06,07,08,18,16.60
2017,06,07,08,19,16.60
2017,06,07,08,20,16.70
2017,06,07,08,21,16.70
2017,06,07,08,22,16.80
2017,06,07,08,23,16.90
2017,06,07,08,24,16.90
2017,06,07,08,25,17.00
2017,06,07,08,26,17.10
2017,06,07,08,27,17.10
2017,06,07,08,28,17.20
2017,06,07,08,29,17.30
2017,06,07,08,30,17.30
2017,06,07,08,31,17.40
2017,06,07,08,32,17.40
2017,06,07,08,33,17.40
2017,06,07,08,34,17.40
2017,06,07,08,35,17.30
2017,06,07,08,36,17.30
2017,06,07,08,37,17.30
2017,06,07,08,38,17.30
2017,06,07,08,39,17.20
2017,06,07,08,40,17.20
2017,06,07,08,41,17.20
2017,06,07,08,42,17.10
2017,06,07,08,43,16.90
2017,06,07,08,44,16.70
2017,06,07,08,45,16.50
2017,06,07,08,46,16.40
2017,06,07,08,47,16.20
2017,06,07,08,48,16.10
2017,06,07,08,49,16.00
2017,06,07,08,50,15.90
2017,06,07,08,51,15.80
2017,06,07,08,52,15.60
2017,06,07,08,53,15.50
2017,06,07,08,54,15.40
2017,06,07,08,55,15.30
2017,06,07,08,56,15.20
2017,06,07,08,57,15.10
2017,06,07,08,58,15.00
2017,06,07,08,59,14.90
2017,06,07,09,00,14.70
2017,06,07,09,01,14.60
2017,06,07,09,02,14.60
2017,06,07,09,03,14.50
2017,06,07,09,04,14.40
2017,06,07,09,05,14.40
2017,06,07,09,06,14.30
2017,06,07,09,07,14.30
2017,06,07,09,08,14.20
2017,06,07,09,09,14.20
2017,06,07,09,10,14.20
2017,06,07,09,11,14.20
2017,06,07,09,12,14.10
2017,06,07,09,13,14.10
2017,06,07,09,14,14.10
2017,06,07,09,15,14.10
2017,06,07,09,16,14.10
2017,06,07,09,17,14.10
2017,06,07,09,18,14.10
2017,06,07,09,19,14.10
2017,06,07,09,20,14.00
2017,06,07,09,21,14.00
2017,06,07,09,22,14.00
2017,06,07,09,23,13.90
2017,06,07,09,24,13.90
2017,06,07,09,25,13.90
2017,06,07,09,26,13.90
2017,06,07,09,27,13.90
2017,06,07,09,28,13.90
2017,06,07,09,29,13.90
2017,06,07,09,30,13.80
2017,06,07,09,31,13.80
2017,06,07,09,32,13.90
2017,06,07,09,33,13.90
2017,06,07,09,34,13.90
2017,06,07,09,35,13.90
2017,06,07,09,36,14.00
2017,06,07,09,37,14.00
2017,06,07,09,38,14.00
2017,06,07,09,39,14.10
2017,06,07,09,40,14.10
2017,06,07,09,41,14.20
2017,06,07,09,42,14.20
2017,06,07,09,43,14.30
2017,06,07,09,44,14.40
2017,06,07,09,45,14.50
2017,06,07,09,46,14.50
2017,06,07,09,47,14.60
2017,06,07,09,48,14.70
2017,06,07,09,49,14.70
2017,06,07,09,50,14.80
2017,06,07,09,51,14.90
2017,06,07,09,52,14.90
2017,06,07,09,53,14.90
2017,06,07,09,54,15.00
2017,06,07,09,55,15.00
2017,06,07,09,56,15.10
2017,06,07,09,57,15.10
2017,06,07,09,58,15.10
2017,06,07,09,59,15.20
2017,06,07,10,00,15.20
2017,06,07,10,01,15.20
2017,06,07,10,02,15.10
2017,06,07,10,03,15.20
2017,06,07,10,04,15.20
2017,06,07,10,05,15.20
2017,06,07,10,06,15.20
2017,06,07,10,07,15.30
2017,06,07,10,08,15.30
2017,06,07,10,09,15.40
2017,06,07,10,10,15.40
2017,06,07,10,11,15.50
2017,06,07,10,12,15.50
2017,06,07,10,13,15.60
2017,06,07,10,14,15.70
2017,06,07,10,15,15.70
2017,06,07,10,16,15.80
2017,06,07,10,17,15.80
2017,06,07,10,18,15.80
2017,06,07,10,19,15.90
2017,06,07,10,20,15.90
2017,06,07,10,21,16.00
2017,06,07,10,22,16.00
2017,06,07,10,23,16.10
2017,06,07,10,24,16.10
2017,06,07,10,25,16.20
2017,06,07,10,26,16.20
2017,06,07,10,27,16.20
2017,06,07,10,28,16.30
2017,06,07,10,29,16.30
2017,06,07,10,30,16.30
2017,06,07,10,31,16.30
2017,06,07,10,32,16.30
2017,06,07,10,33,16.30
2017,06,07,10,34,16.30
2017,06,07,10,35,16.30
2017,06,07,10,36,16.30
2017,06,07,10,37,16.30
2017,06,07,10,38,16.20
2017,06,07,10,39,16.20
2017,06,07,10,40,16.20
2017,06,07,10,41,16.20
2017,06,07,10,42,16.20
2017,06,07,10,43,16.20
2017,06,07,10,44,16.20
2017,06,07,10,45,16.20
2017,06,07,10,46,16.10
2017,06,07,10,47,16.10
2017,06,07,10,48,16.00
2017,06,07,10,49,15.90
2017,06,07,10,50,15.90
2017,06,07,10,51,15.80
2017,06,07,10,52,15.80
2017,06,07,10,53,15.80
2017,06,07,10,54,15.70
2017,06,07,10,55,15.70
2017,06,07,10,56,15.70
2017,06,07,10,57,15.70
2017,06,07,10,58,15.70
2017,06,07,10,59,15.70
2017,06,07,11,00,15.70
2017,06,07,11,01,15.70
2017,06,07,11,02,15.70
2017,06,07,11,03,15.70
2017,06,07,11,04,15.80
2017,06,07,11,05,15.80
2017,06,07,11,06,15.80
2017,06,07,11,07,15.90
2017,06,07,11,08,15.90
2017,06,07,11,09,15.90
2017,06,07,11,10,16.00
2017,06,07,11,11,16.10
2017,06,07,11,12,16.10
2017,06,07,11,13,16.10
2017,06,07,11,14,16.10
2017,06,07,11,15,16.20
2017,06,07,11,16,16.20
2017,06,07,11,17,16.20
2017,06,07,11,18,16.20
2017,06,07,11,19,16.20
2017,06,07,11,20,16.20
2017,06,07,11,21,16.10
2017,06,07,11,22,16.10
2017,06,07,11,23,16.10
2017,06,07,11,24,16.10
2017,06,07,11,25,16.10
2017,06,07,11,26,16.10
2017,06,07,11,27,16.00
2017,06,07,11,28,16.00
2017,06,07,11,29,15.90
2017,06,07,11,30,15.80
2017,06,07,11,31,15.80
2017,06,07,11,32,15.70
2017,06,07,11,33,15.70
2017,06,07,11,34,15.70
2017,06,07,11,35,15.70
2017,06,07,11,36,15.70
2017,06,07,11,37,15.70
2017,06,07,11,38,15.70
2017,06,07,11,39,15.60
2017,06,07,11,40,15.60
2017,06,07,11,41,15.60
2017,06,07,11,42,15.60
2017,06,07,11,43,15.60
2017,06,07,11,44,15.60
2017,06,07,11,45,15.60
2017,06,07,11,46,15.70
2017,06,07,11,47,15.70
2017,06,07,11,48,15.80
2017,06,07,11,49,15.80
2017,06,07,11,50,15.80
2017,06,07,11,51,15.90
2017,06,07,11,52,15.90
2017,06,07,11,53,15.90
2017,06,07,11,54,15.90
2017,06,07,11,55,15.90
2017,06,07,11,56,15.90
2017,06,07,11,57,15.90
2017,06,07,11,58,15.90
2017,06,07,11,59,15.90
2017,06,07,12,00,16.00
2017,06,07,12,01,16.00
2017,06,07,12,02,16.10
2017,06,07,12,03,16.10
2017,06,07,12,04,16.10
2017,06,07,12,05,16.10
2017,06,07,12,06,16.10
2017,06,07,12,07,16.20
2017,06,07,12,08,16.20
2017,06,07,12,09,16.20
2017,06,07,12,10,16.30
2017,06,07,12,11,16.30
2017,06,07,12,12,16.30
2017,06,07,12,13,16.40
2017,06,07,12,14,16.40
2017,06,07,12,15,16.40
2017,06,07,12,16,16.50
2017,06,07,12,17,16.50
2017,06,07,12,18,16.60
2017,06,07,12,19,16.60
2017,06,07,12,20,16.70
2017,06,07,12,21,16.70
2017,06,07,12,22,16.80
2017,06,07,12,23,16.80
2017,06,07,12,24,16.80
2017,06,07,12,25,16.80
2017,06,07,12,26,16.90
2017,06,07,12,27,16.90
2017,06,07,12,28,17.00
2017,06,07,12,29,17.00
2017,06,07,12,30,17.00
2017,06,07,12,31,17.00
2017,06,07,12,32,17.00
2017,06,07,12,33,17.00
2017,06,07,12,34,17.10
2017,06,07,12,35,17.10
2017,06,07,12,36,17.10
2017,06,07,12,37,17.10
2017,06,07,12,38,17.10
2017,06,07,12,39,17.00
2017,06,07,12,40,17.00
2017,06,07,12,41,17.00
2017,06,07,12,42,17.10
2017,06,07,12,43,17.00
2017,06,07,12,44,17.00
2017,06,07,12,45,17.00
2017,06,07,12,46,17.00
2017,06,07,12,47,17.00
2017,06,07,12,48,16.90
2017,06,07,12,49,16.90
2017,06,07,12,50,16.90
2017,06,07,12,51,16.90
2017,06,07,12,52,16.90
2017,06,07,12,53,16.90
2017,06,07,12,54,16.90
2017,06,07,12,55,16.90
2017,06,07,12,56,16.90
2017,06,07,12,57,16.90
2017,06,07,12,58,16.90
2017,06,07,12,59,16.90
2017,06,07,13,00,16.90
2017,06,07,13,01,16.80
2017,06,07,13,02,16.80
2017,06,07,13,03,16.70
2017,06,07,13,04,16.60
2017,06,07,13,05,16.60
2017,06,07,13,06,16.50
2017,06,07,13,07,16.40
2017,06,07,13,08,16.40
2017,06,07,13,09,16.30
2017,06,07,13,10,16.30
2017,06,07,13,11,16.20
2017,06,07,13,12,16.20
2017,06,07,13,13,16.20
2017,06,07,13,14,16.20
2017,06,07,13,15,16.20
2017,06,07,13,16,16.20
2017,06,07,13,17,16.20
2017,06,07,13,18,16.30
2017,06,07,13,19,16.30
2017,06,07,13,20,16.30
2017,06,07,13,21,16.30
2017,06,07,13,22,16.30
2017,06,07,13,23,16.30
2017,06,07,13,24,16.40
2017,06,07,13,25,16.40
2017,06,07,13,26,16.40
2017,06,07,13,27,16.50
2017,06,07,13,28,16.50
2017,06,07,13,29,16.60
2017,06,07,13,30,16.60
2017,06,07,13,31,16.70
2017,06,07,13,32,16.70
2017,06,07,13,33,16.80
2017,06,07,13,34,16.80
2017,06,07,13,35,16.80
2017,06,07,13,36,16.80
2017,06,07,13,37,16.80
2017,06,07,13,38,16.80
2017,06,07,13,39,16.80
2017,06,07,13,40,16.80
2017,06,07,13,41,16.80
2017,06,07,13,42,16.80
2017,06,07,13,43,16.90
2017,06,07,13,44,16.90
2017,06,07,13,45,16.90
2017,06,07,13,46,16.90
2017,06,07,13,47,16.90
2017,06,07,13,48,17.00
2017,06,07,13,49,17.00
2017,06,07,13,50,17.10
2017,06,07,13,51,17.10
2017,06,07,13,52,17.10
2017,06,07,13,53,17.10
2017,06,07,13,54,17.10
2017,06,07,13,55,17.20
2017,06,07,13,56,17.20
2017,06,07,13,57,17.20
2017,06,07,13,58,17.30
2017,06,07,13,59,17.40
2017,06,07,14,00,17.40
2017,06,07,14,01,17.40
2017,06,07,14,02,17.50
2017,06,07,14,03,17.60
2017,06,07,14,04,17.60
2017,06,07,14,05,17.70
2017,06,07,14,06,17.70
2017,06,07,14,07,17.80
2017,06,07,14,08,17.80
2017,06,07,14,09,17.90
2017,06,07,14,10,17.90
2017,06,07,14,11,18.00
2017,06,07,14,12,18.10
2017,06,07,14,13,18.10
2017,06,07,14,14,18.20
2017,06,07,14,15,18.30
2017,06,07,14,16,18.30
2017,06,07,14,17,18.40
2017,06,07,14,18,18.50
2017,06,07,14,19,18.50
2017,06,07,14,20,18.60
2017,06,07,14,21,18.70
2017,06,07,14,22,18.70
2017,06,07,14,23,18.70
2017,06,07,14,24,18.80
2017,06,07,14,25,18.80
2017,06,07,14,26,18.90
2017,06,07,14,27,18.90
2017,06,07,14,28,19.00
2017,06,07,14,29,19.00
2017,06,07,14,30,19.10
2017,06,07,14,31,19.10
2017,06,07,14,32,19.10
2017,06,07,14,33,19.20
2017,06,07,14,34,19.20
2017,06,07,14,35,19.20
2017,06,07,14,36,19.20
2017,06,07,14,37,19.20
2017,06,07,14,38,19.30
2017,06,07,14,39,19.30
2017,06,07,14,40,19.30
2017,06,07,14,41,19.20
2017,06,07,14,42,19.20
2017,06,07,14,43,19.20
2017,06,07,14,44,19.20
2017,06,07,14,45,19.20
2017,06,07,14,46,19.10
2017,06,07,14,47,19.10
2017,06,07,14,48,19.00
2017,06,07,14,49,19.00
2017,06,07,14,50,18.90
2017,06,07,14,51,18.80
2017,06,07,14,52,18.80
2017,06,07,14,53,18.70
2017,06,07,14,54,18.70
2017,06,07,14,55,18.60
2017,06,07,14,56,18.60
2017,06,07,14,57,18.50
2017,06,07,14,58,18.50
2017,06,07,14,59,18.50
2017,06,07,15,00,18.60
2017,06,07,15,01,18.60
2017,06,07,15,02,18.60
2017,06,07,15,03,18.60
2017,06,07,15,04,18.60
2017,06,07,15,05,18.70
2017,06,07,15,06,18.70
2017,06,07,15,07,18.70
2017,06,07,15,08,18.70
2017,06,07,15,09,18.70
2017,06,07,15,10,18.70
2017,06,07,15,11,18.60
2017,06,07,15,12,18.60
2017,06,07,15,13,18.60
2017,06,07,15,14,18.60
2017,06,07,15,15,18.60
2017,06,07,15,16,18.60
2017,06,07,15,17,18.60
2017,06,07,15,18,18.50
2017,06,07,15,19,18.40
2017,06,07,15,20,18.40
2017,06,07,15,21,18.40
2017,06,07,15,22,18.40
2017,06,07,15,23,18.50
2017,06,07,15,24,18.50
2017,06,07,15,25,18.60
2017,06,07,15,26,18.60
2017,06,07,15,27,18.70
2017,06,07,15,28,18.70
2017,06,07,15,29,18.80
2017,06,07,15,30,18.80
2017,06,07,15,31,18.80
2017,06,07,15,32,18.80
2017,06,07,15,33,18.90
2017,06,07,15,34,18.90
2017,06,07,15,35,18.90
2017,06,07,15,36,18.90
2017,06,07,15,37,18.90
2017,06,07,15,38,18.90
2017,06,07,15,39,18.80
2017,06,07,15,40,18.80
2017,06,07,15,41,18.80
2017,06,07,15,42,18.80
2017,06,07,15,43,18.80
2017,06,07,15,44,18.70
2017,06,07,15,45,18.70
2017,06,07,15,46,18.70
2017,06,07,15,47,18.70
2017,06,07,15,48,18.70
2017,06,07,15,49,18.70
2017,06,07,15,50,18.70
2017,06,07,15,51,18.70
2017,06,07,15,52,18.60
2017,06,07,15,53,18.60
2017,06,07,15,54,18.60
2017,06,07,15,55,18.50
2017,06,07,15,56,18.50
2017,06,07,15,57,18.40
2017,06,07,15,58,18.40
2017,06,07,15,59,18.40
2017,06,07,16,00,18.40
2017,06,07,16,01,18.40
2017,06,07,16,02,18.40
2017,06,07,16,03,18.40
2017,06,07,16,04,18.30
2017,06,07,16,05,18.30
2017,06,07,16,06,18.20
2017,06,07,16,07,18.10
2017,06,07,16,08,18.00
2017,06,07,16,09,17.90
2017,06,07,16,10,17.80
2017,06,07,16,11,17.70
2017,06,07,16,12,17.70
2017,06,07,16,13,17.70
2017,06,07,16,14,17.70
2017,06,07,16,15,17.70
2017,06,07,16,16,17.70
2017,06,07,16,17,17.70
2017,06,07,16,18,17.80
2017,06,07,16,19,17.80
2017,06,07,16,20,17.90
2017,06,07,16,21,18.00
2017,06,07,16,22,18.10
2017,06,07,16,23,18.30
2017,06,07,16,24,18.40
2017,06,07,16,25,18.50
2017,06,07,16,26,18.60
2017,06,07,16,27,18.70
2017,06,07,16,28,18.70
2017,06,07,16,29,18.60
2017,06,07,16,30,18.50
2017,06,07,16,31,18.50
2017,06,07,16,32,18.40
2017,06,07,16,33,18.30
2017,06,07,16,34,18.20
2017,06,07,16,35,18.20
2017,06,07,16,36,18.20
2017,06,07,16,37,18.20
2017,06,07,16,38,18.20
2017,06,07,16,39,18.20
2017,06,07,16,40,18.20
2017,06,07,16,41,18.20
2017,06,07,16,42,18.20
2017,06,07,16,43,18.20
2017,06,07,16,44,18.30
2017,06,07,16,45,18.30
2017,06,07,16,46,18.30
2017,06,07,16,47,18.40
2017,06,07,16,48,18.50
2017,06,07,16,49,18.50
2017,06,07,16,50,18.60
2017,06,07,16,51,18.60
2017,06,07,16,52,18.70
2017,06,07,16,53,18.70
2017,06,07,16,54,18.70
2017,06,07,16,55,18.70
2017,06,07,16,56,18.70
2017,06,07,16,57,18.70
2017,06,07,16,58,18.80
2017,06,07,16,59,18.80
2017,06,07,17,00,18.80
2017,06,07,17,01,18.80
2017,06,07,17,02,18.80
2017,06,07,17,03,18.80
2017,06,07,17,04,18.70
2017,06,07,17,05,18.60
2017,06,07,17,06,18.50
2017,06,07,17,07,18.40
2017,06,07,17,08,18.30
2017,06,07,17,09,18.10
2017,06,07,17,10,18.00
2017,06,07,17,11,17.80
2017,06,07,17,12,17.70
2017,06,07,17,13,17.50
2017,06,07,17,14,17.30
2017,06,07,17,15,17.10
2017,06,07,17,16,16.90
2017,06,07,17,17,16.70
2017,06,07,17,18,16.60
2017,06,07,17,19,16.30